Oujda, Morocco

10:35 PM WET on November 18, 2017 (GMT +0000)
Oujda

Weather History for GMFO - October, 2012

Change the Weather History Date:

Sunday, October 7, 2012

  Actual Average Record
Temperature  
Mean Temperature 74 °F -  
Max Temperature 89 °F 74 °F 98 °F (2004)
Min Temperature 59 °F 51 °F 32 °F (1999)
Cooling Degree Days 9    
Growing Degree Days 24 (Base 50)    
Moisture  
Dew Point 61 °F    
Average Humidity 66    
Maximum Humidity 94    
Minimum Humidity 31    
Precipitation  
Precipitation 0.00 in 0.05 in - ()
Sea Level Pressure  
Sea Level Pressure 30.15 in    
Wind  
Wind Speed 3 mph ()    
Max Wind Speed 13 mph    
Max Gust Speed -    
Visibility 7.5 miles    
Events      
Averages and records for this station are not official NWS values.
T = Trace of Precipitation, MM = Missing Value Source: Averaged Metar Reports

Daily Weather History Graph

Daily Weather History Graph

Search for Another Location

Airport or City:

Trip Planner

Search our weather history database for the weather conditions in past years. The results will help you decide how hot, cold, wet, or windy it might be!

Date:

Astronomy

Oct. 07, 2012 Rise Set
Actual Time 6:07 AM WET 5:43 PM WET
Civil Twilight 5:41 AM WET 6:08 PM WET
Nautical Twilight 5:12 AM WET 6:37 PM WET
Astronomical Twilight 4:43 AM WET 7:06 PM WET
Moon 10:50 PM WET (10/7) 12:24 PM WET (10/7)
Length of Visible Light 12h 26m
Length of Day
11h 35m
Waning Gibbous, 58% of the Moon is Illuminated
Oct 7
Waning Gibbous
Oct 8
Last Quarter
Oct 15
New
Oct 22
First Quarter
Oct 29
Full

Hourly Weather History & Observations

Time (WET) Temp. Heat Index Dew Point Humidity Pressure Visibility Wind Dir Wind Speed Gust Speed Precip Events Conditions
12:00 AM 65 °F - 60 °F 79% 30.14 in 9 mi WSW 3.5 mph - -   Clear
12:00 AM 64.4 °F - 60.8 °F 88% 30.18 in - WSW 3.5 mph - N/A   Clear
1:00 AM 64.4 °F - 60.8 °F 88% 30.18 in - Calm Calm - N/A   Clear
2:00 AM 62.6 °F - 59.0 °F 88% 30.18 in - Calm Calm - N/A   Clear
3:00 AM 62 °F - 59 °F 87% 30.14 in 9 mi Calm Calm - -   Clear
3:00 AM 62.6 °F - 59.0 °F 88% 30.15 in - Calm Calm - N/A   Clear
5:00 AM 60.8 °F - 59.0 °F 94% 30.18 in - Variable 2.3 mph - N/A   Clear
6:00 AM 59.0 °F - 57.2 °F 94% 30.18 in - SW 3.5 mph - N/A   Clear
7:00 AM 60.8 °F - 59.0 °F 94% 30.18 in - WSW 3.5 mph - N/A   Clear
8:00 AM 68.0 °F - 66.2 °F 94% 30.21 in - Calm Calm - N/A   Clear
9:00 AM 73 °F - 65 °F 68% 30.16 in 9 mi NNW 1.2 mph - -   Clear
9:00 AM 73.4 °F - 64.4 °F 73% 30.21 in - Variable 1.2 mph - N/A   Clear
11:00 AM 82.4 °F 82.9 °F 60.8 °F 48% 30.21 in - NNE 3.5 mph - N/A   Clear
12:00 PM 87 °F - 60 °F 31% 30.09 in 9 mi NE 2.3 mph - -   Scattered Clouds
12:00 PM 87.8 °F 87.6 °F 60.8 °F 40% 30.18 in 6.2 mi ENE 3.5 mph - N/A   Partly Cloudy
1:00 PM 89.6 °F 89.5 °F 60.8 °F 38% 30.15 in 6.2 mi North 5.8 mph - N/A   Partly Cloudy
2:00 PM 89.6 °F 90.1 °F 62.6 °F 40% 30.15 in 6.2 mi North 10.4 mph - N/A   Partly Cloudy
3:00 PM 89 °F - 63 °F 32% 30.03 in 9 mi North 11.5 mph - -   Scattered Clouds
3:00 PM 89.6 °F 90.1 °F 62.6 °F 40% 30.12 in 6.2 mi North 11.5 mph - N/A   Partly Cloudy
4:00 PM 87.8 °F 89.4 °F 64.4 °F 46% 30.12 in 6.2 mi North 12.7 mph - N/A   Partly Cloudy
5:00 PM 84.2 °F 85.6 °F 64.4 °F 51% 30.12 in 6.2 mi North 10.4 mph - N/A   Partly Cloudy
6:00 PM 81 °F - 60 °F 39% 30.06 in 9 mi East 6.9 mph - -   Scattered Clouds
6:00 PM 80.6 °F 81.5 °F 60.8 °F 51% 30.15 in 6.2 mi East 6.9 mph - N/A   Partly Cloudy
7:00 PM 77.0 °F - 62.6 °F 61% 30.15 in 6.2 mi NE 2.3 mph - N/A   Partly Cloudy
8:00 PM 75.2 °F - 62.6 °F 65% 30.18 in - NNW 3.5 mph - N/A   Clear
9:00 PM 70 °F - 61 °F 65% 30.13 in 9 mi West 1.2 mph - -  
9:00 PM 69.8 °F - 60.8 °F 73% 30.18 in - Variable 1.2 mph - N/A   Clear
11:00 PM 68.0 °F - 64.4 °F 88% 30.18 in - NW 3.5 mph - N/A   Clear